Location: LDNL
(36.4545°S, 141.6685°E)
Time: 12:07:50
(UTC+10:00)

Explorer 7 - Pass Details

Date: 19 August 2022
Orbit: 482 x 668 km, 50.3° (Epoch: 26 September)

Event Time Altitude Azimuth Distance (km) Brightness Sun altitude
Rises 14:33:38 0° 341° (NNW) 2,958 11.5 33.6°
Reaches altitude 10° 14:36:12 10° 352° (N) 2,072 10.8 33.3°
Maximum altitude 14:40:15 27° 50° (NE) 1,276 9.0 32.8°
Drops below altitude 10° 14:44:22 10° 107° (ESE) 2,111 9.5 32.3°
Sets 14:47:01 0° 118° (ESE) 3,025 10.1 32.0°
